Wind_Speed
28 28 29 29 30 31 31 32 32 33 35 36 36 35 35 35 36 36 38 38 39 39 40 40 41 42 42 42 43 45 47 47 47 46 45 43 41 39
30 31 31 32 32 33 33 34 34 35 36 38 39 39 39 38 38 38 39 40 41 41 41 41 42 42 43 44 44 45 46 47 48 48 48 46 44 42
33 33 33 34 34 35 35 35 36 36 35 38 40 41 41 41 41 41 41 42 43 43 43 43 43 43 43 43 43 45 46 47 48 48 48 47 46 45
34 34 35 35 36 36 35 35 35 36 35 36 38 41 42 43 42 43 43 44 44 45 45 45 44 44 44 43 43 44 45 46 48 49 49 48 47 46
36 36 36 36 36 36 35 35 35 35 35 34 36 39 40 42 43 43 44 45 46 46 46 47 46 46 45 45 44 44 44 46 47 48 48 48 48 48
37 38 38 37 37 36 35 35 35 34 34 34 34 37 38 40 41 41 43 44 45 47 47 47 47 46 46 46 45 45 45 45 46 48 48 48 48 49
39 39 39 39 38 37 36 35 35 34 34 34 34 35 36 38 39 40 41 42 44 46 46 47 47 47 47 46 46 46 45 46 46 47 47 48 49 49
39 40 39 39 38 37 36 36 35 34 33 33 32 33 34 36 37 38 39 41 42 45 46 47 48 48 48 47 47 46 45 45 45 46 47 48 49 49
40 40 40 40 39 37 36 35 35 34 33 32 32 32 33 34 35 36 38 39 40 43 45 46 48 48 49 49 48 47 46 45 45 45 46 46 47 48
41 41 40 40 39 38 36 35 34 34 33 32 31 32 33 34 34 35 36 38 39 42 44 44 47 48 49 50 50 48 47 46 45 45 46 46 46 48
41 41 40 39 39 38 36 35 34 34 34 33 32 32 33 33 34 34 35 37 38 41 43 43 45 48 49 50 50 49 48 47 46 45 46 46 46 47
42 42 41 40 38 37 36 35 34 34 34 34 33 33 33 33 34 34 34 35 37 39 42 43 44 47 47 49 50 51 49 47 46 46 46 45 45 46
43 43 42 40 38 37 35 35 35 34 34 33 34 34 34 34 34 35 35 35 36 38 41 43 44 46 46 48 50 51 51 49 47 47 46 46 45 45
44 43 41 40 38 37 36 36 35 34 33 33 33 33 34 35 35 36 36 36 36 38 41 43 43 45 46 47 48 50 51 50 48 47 46 46 46 45
44 42 41 39 38 37 36 35 34 34 33 33 33 33 34 34 34 35 36 37 37 38 40 43 44 45 46 47 48 49 50 50 48 46 46 46 46 45
44 42 40 39 38 37 36 35 34 34 33 32 32 32 32 32 33 34 35 36 37 38 39 42 44 45 45 46 47 48 49 49 49 47 47 47 46 45
43 41 39 38 37 35 35 34 34 33 31 30 30 30 30 31 31 32 33 34 35 36 38 40 42 44 45 46 46 48 49 49 49 49 48 48 48 46
43 40 39 38 36 35 34 33 32 31 30 29 29 29 30 30 30 31 31 32 33 35 37 39 41 43 45 46 46 46 48 48 48 48 47 47 47 46
42 39 38 37 35 34 33 32 31 30 29 29 29 29 29 30 30 30 30 30 30 32 35 37 40 42 44 46 47 48 47 48 49 49 48 47 47 47
40 38 36 35 34 33 32 31 30 29 28 28 28 28 28 28 28 29 29 30 31 32 33 36 37 40 43 46 48 50 49 48 48 49 48 47 48 48
38 36 35 34 33 32 31 29 28 28 28 27 27 27 27 27 27 27 28 29 31 32 33 34 37 39 42 45 47 49 50 50 48 48 49 48 47 47
35 34 34 33 32 31 30 29 28 27 27 26 26 25 26 26 26 27 27 29 30 31 32 34 37 39 40 42 45 47 50 51 49 48 48 48 47 47
33 32 32 31 31 30 29 28 27 27 26 26 25 24 24 25 26 26 27 28 29 30 32 34 36 38 40 42 44 47 49 51 50 48 47 46 45 46
Wind_Direction
311 307 302 298 294 289 285 280 275 271 268 265 261 258 255 252 251 248 245 244 243 242 241 240 238 237 236 236 235 234 234 233 233 233 234 235 236 237
312 309 305 301 298 293 289 284 279 273 269 266 263 259 255 252 250 248 246 243 242 241 241 240 238 237 237 236 236 235 234 233 233 234 234 235 236 237
311 308 305 303 300 296 292 288 283 278 271 266 264 260 257 253 250 248 246 245 243 242 241 239 238 237 237 236 236 234 234 233 232 233 234 235 235 236
310 308 306 305 302 299 295 291 286 281 275 269 265 262 259 255 251 248 246 244 243 241 240 238 237 237 237 236 235 234 234 233 233 233 234 235 236 236
309 308 307 306 303 300 296 292 288 284 279 272 267 264 261 258 254 249 246 244 243 241 240 238 238 237 237 237 236 234 234 234 233 233 233 234 234 235
308 308 307 305 302 299 296 292 289 285 281 275 269 265 262 259 256 252 248 244 242 241 239 239 237 236 235 236 235 235 234 234 233 233 232 232 233 233
306 306 306 304 301 298 295 291 288 285 281 277 271 266 263 260 257 253 249 245 242 240 238 237 236 235 234 235 235 235 235 234 233 233 232 232 233 233
305 305 305 303 300 297 293 290 287 284 280 276 272 267 263 261 258 254 250 246 243 241 238 236 236 235 234 234 233 233 234 234 233 234 233 232 232 233
306 304 303 302 299 296 293 290 286 282 279 275 271 268 265 262 259 255 251 246 244 242 239 236 235 234 233 232 232 231 232 233 233 233 233 232 232 231
306 304 302 300 297 294 291 289 286 282 278 274 270 268 267 265 261 257 252 247 244 242 240 236 236 234 233 232 231 230 230 230 232 232 231 231 230 230
305 304 302 299 296 293 290 288 284 281 278 274 271 268 266 265 262 259 254 249 244 242 240 236 235 234 232 231 230 229 229 229 230 231 230 231 230 229
305 303 300 297 294 291 288 286 283 279 277 274 272 268 265 264 263 260 255 250 245 242 241 237 234 234 231 230 229 227 227 227 227 228 229 229 229 229
303 301 298 295 292 289 286 285 283 279 276 274 271 268 265 263 262 260 256 252 247 242 241 238 234 233 231 229 228 227 226 226 226 227 228 228 227 227
301 298 296 293 290 287 285 284 283 280 277 273 271 269 266 264 262 259 257 253 248 243 241 239 235 233 231 228 227 226 225 225 225 226 226 226 226 226
298 296 294 291 288 285 283 283 281 279 278 275 271 269 267 264 262 259 256 253 248 244 242 240 236 233 231 228 226 225 225 224 224 224 224 224 224 224
295 294 292 289 286 283 282 282 280 280 278 275 271 268 266 264 262 259 257 254 250 245 242 240 236 233 230 228 226 224 224 223 223 223 222 222 222 222
292 291 289 287 285 283 281 281 281 281 277 273 271 267 265 265 262 260 258 254 250 244 242 238 235 232 230 228 226 224 223 223 223 222 221 220 220 220
288 287 286 285 283 283 282 281 280 279 276 273 271 268 265 264 262 259 257 254 250 244 240 238 236 232 229 227 224 223 223 222 222 221 220 218 218 219
284 284 283 282 282 281 281 280 279 278 276 274 272 269 266 264 261 258 256 253 249 244 240 238 236 234 230 226 224 223 221 220 221 220 219 218 217 217
280 281 282 281 280 279 280 279 277 277 276 275 273 270 267 264 261 258 255 252 248 245 242 239 237 234 230 227 224 222 220 219 219 218 218 217 217 216
278 279 279 279 277 277 278 276 275 276 275 275 273 270 266 263 260 258 256 254 249 245 243 240 237 234 230 227 224 222 221 220 218 217 216 215 215 215
274 275 276 276 275 275 275 275 275 274 274 274 272 268 265 262 260 257 257 255 250 246 243 239 237 234 231 227 224 221 220 219 217 216 216 215 214 214
271 272 273 273 272 274 275 274 272 272 273 273 271 268 264 263 261 259 256 255 251 247 244 241 238 235 232 228 224 221 220 218 215 215 214 213 213 213
Height
5810 5807 5805 5802 5800 5799 5797 5797 5797 5796 5795 5794 5795 5796 5797 5799 5800 5802 5804 5806 5808 5811 5814 5817 5821 5825 5828 5833 5837 5841 5846 5852 5857 5862 5867 5872 5876 5880
5803 5800 5797 5794 5791 5789 5787 5785 5785 5785 5784 5782 5783 5784 5786 5788 5789 5791 5792 5795 5798 5800 5804 5807 5811 5814 5818 5822 5827 5831 5836 5841 5846 5852 5857 5862 5867 5872
5795 5792 5789 5785 5782 5779 5776 5774 5772 5772 5772 5771 5770 5771 5772 5775 5777 5779 5781 5783 5786 5789 5793 5796 5800 5804 5808 5812 5816 5821 5826 5831 5836 5841 5847 5852 5858 5863
5787 5783 5780 5776 5772 5768 5765 5763 5760 5759 5759 5759 5758 5757 5759 5761 5763 5766 5769 5772 5774 5777 5781 5785 5789 5793 5797 5801 5806 5810 5815 5820 5825 5831 5837 5842 5848 5853
5778 5774 5770 5766 5762 5758 5755 5752 5749 5748 5747 5747 5746 5745 5746 5747 5750 5753 5756 5759 5762 5765 5769 5773 5777 5782 5786 5791 5795 5800 5805 5810 5815 5820 5825 5831 5837 5842
5769 5765 5760 5756 5752 5748 5745 5742 5739 5737 5735 5735 5734 5733 5733 5734 5736 5739 5742 5745 5749 5752 5756 5761 5765 5770 5775 5780 5785 5789 5794 5799 5803 5809 5814 5820 5826 5831
5759 5755 5750 5746 5741 5738 5734 5731 5728 5726 5724 5723 5722 5722 5722 5722 5724 5726 5729 5732 5735 5738 5743 5748 5753 5758 5762 5767 5772 5777 5782 5787 5792 5798 5803 5809 5814 5820
5749 5744 5740 5735 5731 5727 5724 5721 5718 5715 5713 5712 5711 5711 5710 5710 5711 5714 5716 5720 5723 5727 5730 5734 5739 5745 5749 5755 5760 5765 5771 5776 5781 5787 5792 5798 5803 5809
5738 5734 5729 5724 5720 5716 5713 5710 5707 5704 5703 5702 5701 5700 5699 5699 5700 5702 5704 5707 5710 5713 5717 5722 5726 5732 5736 5742 5748 5754 5759 5765 5770 5776 5781 5787 5792 5798
5727 5722 5718 5713 5709 5705 5702 5699 5696 5694 5692 5691 5691 5690 5689 5689 5689 5691 5692 5695 5698 5700 5703 5709 5713 5719 5724 5729 5735 5741 5747 5753 5759 5765 5770 5776 5782 5787
5716 5711 5706 5702 5698 5694 5691 5689 5686 5683 5681 5680 5680 5679 5678 5678 5678 5679 5681 5683 5686 5688 5690 5696 5700 5704 5711 5717 5723 5729 5735 5742 5748 5753 5759 5765 5771 5776
5704 5699 5694 5690 5686 5682 5680 5677 5675 5672 5671 5670 5669 5668 5667 5667 5667 5668 5669 5671 5673 5676 5678 5683 5687 5692 5699 5704 5710 5717 5723 5730 5736 5742 5748 5754 5759 5765
5691 5686 5682 5678 5674 5671 5668 5666 5663 5661 5660 5658 5657 5657 5656 5656 5656 5656 5658 5659 5662 5665 5666 5670 5675 5680 5686 5693 5698 5705 5711 5718 5724 5731 5737 5743 5749 5755
5679 5674 5669 5665 5662 5659 5656 5654 5652 5650 5649 5647 5646 5645 5644 5644 5644 5645 5646 5648 5650 5653 5654 5658 5663 5668 5674 5680 5686 5693 5700 5706 5713 5720 5726 5732 5738 5744
5666 5661 5657 5653 5650 5647 5645 5642 5640 5639 5637 5636 5634 5633 5632 5632 5632 5633 5634 5635 5638 5640 5643 5646 5651 5656 5661 5668 5675 5681 5688 5695 5702 5708 5715 5721 5728 5734
5652 5648 5645 5641 5638 5636 5633 5631 5629 5627 5625 5624 5623 5622 5621 5621 5621 5621 5622 5623 5625 5628 5630 5634 5638 5643 5650 5656 5663 5670 5676 5683 5691 5697 5704 5711 5717 5724
5638 5636 5632 5629 5627 5624 5622 5620 5618 5616 5614 5613 5612 5611 5610 5610 5609 5609 5610 5611 5613 5616 5618 5622 5626 5631 5637 5644 5651 5658 5665 5672 5679 5685 5692 5700 5707 5714
5625 5623 5620 5617 5615 5613 5611 5609 5607 5605 5603 5602 5601 5600 5600 5599 5599 5599 5599 5600 5602 5604 5607 5610 5614 5619 5626 5633 5641 5647 5653 5661 5667 5674 5681 5689 5697 5704
5611 5609 5607 5605 5603 5601 5599 5598 5596 5594 5593 5591 5590 5589 5589 5588 5588 5588 5589 5590 5591 5594 5596 5599 5603 5608 5615 5622 5629 5635 5642 5649 5655 5663 5671 5679 5687 5693
5598 5596 5594 5593 5591 5590 5588 5587 5585 5584 5582 5581 5580 5579 5578 5578 5578 5578 5579 5580 5581 5584 5586 5589 5593 5598 5603 5610 5615 5623 5630 5637 5645 5653 5660 5668 5675 5682
5584 5583 5582 5581 5580 5578 5577 5576 5575 5574 5573 5571 5570 5569 5568 5568 5568 5569 5569 5570 5572 5574 5576 5579 5582 5586 5591 5597 5605 5613 5620 5627 5634 5642 5650 5657 5665 5673
5571 5570 5570 5569 5568 5567 5566 5565 5564 5564 5562 5561 5560 5559 5559 5559 5559 5560 5560 5561 5562 5564 5566 5569 5572 5576 5581 5587 5595 5601 5608 5615 5624 5631 5640 5648 5656 5665
5559 5558 5558 5558 5557 5556 5556 5555 5554 5553 5552 5552 5551 5550 5550 5550 5550 5551 5551 5552 5553 5554 5556 5559 5562 5566 5571 5577 5583 5590 5597 5605 5613 5622 5631 5639 5647 5654